San Jose, Costa Rica

8:34 AM CST on February 23, 2017 (GMT -0600)
Juan Santamaria International

Weather History for MROC - September, 2012

Change the Weather History Date:

Friday, September 28, 2012

  Actual Average Record
Temperature  
Mean Temperature 71 °F -  
Max Temperature 81 °F 78 °F 85 °F (2016)
Min Temperature 61 °F 64 °F 50 °F (2002)
Cooling Degree Days 6    
Growing Degree Days 21 (Base 50)    
Moisture  
Dew Point 63 °F    
Average Humidity 74    
Maximum Humidity 88    
Minimum Humidity 51    
Precipitation  
Precipitation 0.00 in 0.44 in - ()
Sea Level Pressure  
Sea Level Pressure 29.97 in    
Wind  
Wind Speed 5 mph ()    
Max Wind Speed 13 mph    
Max Gust Speed -    
Visibility 7.4 miles    
Events Rain , Thunderstorm    
Averages and records for this station are not official NWS values.
T = Trace of Precipitation, MM = Missing Value Source: Averaged Metar Reports

Daily Weather History Graph

Daily Weather History Graph

Search for Another Location

Airport or City:

Trip Planner

Search our weather history database for the weather conditions in past years. The results will help you decide how hot, cold, wet, or windy it might be!

Date:

Astronomy

Sep. 28, 2012 Rise Set
Actual Time 5:25 AM CST 5:28 PM CST
Civil Twilight 5:04 AM CST 5:49 PM CST
Nautical Twilight 4:40 AM CST 6:14 PM CST
Astronomical Twilight 4:15 AM CST 6:38 PM CST
Moon 4:27 PM CST (9/28) 4:04 AM CST (9/28)
Length of Visible Light 12h 45m
Length of Day
12h 03m
Waxing Gibbous, 98% of the Moon is Illuminated
Sep 28
Waxing Gibbous
Sep 29
Full
Oct 8
Last Quarter
Oct 15
New
Oct 21
First Quarter

Hourly Weather History & Observations

Time (CST) Temp. Heat Index Dew Point Humidity Pressure Visibility Wind Dir Wind Speed Gust Speed Precip Events Conditions
12:00 AM 68.0 °F - 62.6 °F 83% 29.97 in 6.2 mi ENE 6.9 mph - N/A Rain Light Rain
1:00 AM 66.2 °F - 51.8 °F 60% 29.94 in 6.2 mi East 3.5 mph - N/A Rain Light Rain
2:00 AM 66.2 °F - 62.6 °F 88% 29.92 in - East 3.5 mph - N/A   Clear
3:00 AM 64.4 °F - 60.8 °F 88% 29.92 in - ENE 3.5 mph - N/A   Clear
5:00 AM 62.6 °F - 59.0 °F 88% 29.97 in - ENE 3.5 mph - N/A   Clear
6:00 AM 62.6 °F - 59.0 °F 88% 29.98 in 6.2 mi ENE 4.6 mph - N/A   Scattered Clouds
7:00 AM 71.6 °F - 62.6 °F 73% 30.05 in - NE 4.6 mph - N/A   Clear
8:00 AM 75.2 °F - 62.6 °F 65% 30.04 in - ENE 4.6 mph - N/A   Clear
8:40 AM 77.0 °F - 64.4 °F 65% 30.04 in - SW 3.5 mph - N/A   Clear
9:00 AM 77 °F - 62 °F 51% 29.88 in 12 mi South 3.5 mph - -   Scattered Clouds
9:00 AM 77.0 °F - 62.6 °F 61% 30.04 in 6.2 mi South 3.5 mph - N/A   Scattered Clouds
10:00 AM 78.8 °F - 62.6 °F 57% 30.04 in 6.2 mi SSW 4.6 mph - N/A   Scattered Clouds
11:00 AM 80.6 °F 81.5 °F 60.8 °F 51% 30.02 in 6.2 mi WSW 8.1 mph - N/A   Mostly Cloudy
12:00 PM 80 °F - 66 °F 53% 29.82 in 12 mi SW 8.1 mph - -   Overcast
12:00 PM 80.6 °F 82.7 °F 66.2 °F 61% 29.98 in 6.2 mi SW 8.1 mph - N/A   Mostly Cloudy
1:00 PM 80.6 °F 82.7 °F 66.2 °F 61% 29.96 in 6.2 mi WSW 12.7 mph - N/A   Scattered Clouds
2:00 PM 78.8 °F - 68.0 °F 69% 29.95 in 6.2 mi WSW 12.7 mph - N/A   Scattered Clouds
3:00 PM 76 °F - 66 °F 64% 29.85 in 9 mi WNW 11.5 mph - -   Overcast
3:00 PM 77.0 °F - 66.2 °F 69% 29.95 in 6.2 mi WNW 11.5 mph - N/A Thunderstorm Light Thunderstorm
4:00 PM 69.8 °F - 66.2 °F 88% 29.97 in 6.2 mi WSW 11.5 mph - N/A   Mostly Cloudy
5:00 PM 69.8 °F - 64.4 °F 83% 29.98 in 6.2 mi West 4.6 mph - N/A   Mostly Cloudy
6:00 PM 69 °F - 65 °F 83% 29.90 in 9 mi WNW 3.5 mph - -   Partly Cloudy
6:00 PM 69.8 °F - 64.4 °F 83% 30.00 in 6.2 mi WNW 3.5 mph - N/A   Mostly Cloudy
7:00 PM 69.8 °F - 66.2 °F 88% 30.00 in 6.2 mi ESE 3.5 mph - N/A   Mostly Cloudy
8:00 PM 69.8 °F - 66.2 °F 88% 30.02 in - East 3.5 mph - N/A   Clear
9:00 PM 69 °F - 65 °F 84% 29.86 in 12 mi NE 3.5 mph - -   Partly Cloudy
9:00 PM 69.8 °F - 64.4 °F 83% 30.02 in - NE 3.5 mph - N/A   Clear
10:00 PM 68.0 °F - 64.4 °F 88% 30.03 in - NE 2.3 mph - N/A   Clear
11:00 PM 66.2 °F - 62.6 °F 88% 30.03 in - Calm Calm - N/A   Clear